Location: B�rgermoos
(47.6500°N, 9.0667°E)
Time: 03:10:27
(UTC+00:00)

Cosmos 1428 Rocket - Pass Details

Date: 18 September 2020
Orbit: 947 x 989 km, 82.9° (Epoch: 24 October)

Event Time Altitude Azimuth Distance (km) Brightness Sun altitude
Rises 20:08:38 0° 350° (N) 3,704 8.2 -26.0°
Reaches altitude 10° 20:11:10 10° 349° (N) 2,747 7.4 -26.4°
Maximum altitude 20:17:28 80° 264° (W) 996 4.5 -27.2°
Enters shadow 20:18:53 56° 190° (S) 1,150 4.6 -27.4°
